Погода в Щербакуле

Погода в Щербакуле : погода сейчас, прогноз погоды и архив. Всё, что Вы хотите узнать о погоде в Щербакуле!

Хотите узнать прогноз погоды в Щербакуле? Тогда Вам сюда: Погода в Щербакуле

Поиск расширенной информации на нашем сайте:

Другие новости

Новости СМИ2

Главная страница сайта

Новости сайта

02.10.2013

Напоминаем, что на нашем новом сайте вы можете получить высокодетализированные прогнозы погоды по пунктам России, СНГ и мира (включающие важные для авиации метеовеличины, такие как направление и скорость ветра, видимость, явления погоды, количество и форма облачности, нижняя и верхняя граница облачности), а также ознакомиться с разнообразными материалами по авиационной метеорологии и подборкой полезных ссылок на эту тему.

Сайт Метеоцентр.Азия посвящён разработке технологий оптимизации авиаметеорологического обслуживания, включая проектирование и перспективное создание нескольких автоматизированных авиаметеорологических систем:
- система выпуска высокодетальных прогностических карт явлений погоды для нижнего воздушного пространства по России и ближнему зарубежью;
- система верификации прогнозов TAF (выпускаемых синоптиками официальных АМСГ РФ и ближнего зарубежья) и AUTOTAF (выпускаемых сайтом Метеоцентр.Азия) - выявление ошибок, онлайн-сопоставление с фактической погодой METAR, автоматическое внесение коррективов в прогнозы при резком отклонении фактической погоды от прогноза, подсчёт оправдываемости прогнозов по элементам и в целом;
- система обработки, анализа и отображения авиаметеорологической информации для применения провайдерами метеорологической информации.

Рекомендуем: http://www.italyvisa.ru Документы необходимые для оформления визы в Италию

Погода в Щербакуле - сегодня

Время (UTC), дата Ветер
(°,м/с) 
Видим.   Явления Облачность Т
(°С)
Тd
(°С)
f(%) Тe
(°С)
Pmin
(гПа)
dP
(гПа)
Po
(мм)
O2
(г/м3)
Тmin Tmax R s Состояние
почвы
03 22.03.17 тихо ()   20000 м    1/0 верхняя 
[Ci fib]
-12.6 -15 82 -13  1039.5  1.3  768  326  -18.5      44  неравномерный
сухой снег
100% 
06 22.03.17 080 (В) 20000 м    1/0 верхняя 
[Ci fib]
-3.6 -13.1 48 -3  1039.6  0.7  769  315           
09 22.03.17 200 (Ю) 20000 м    ясно 
+1 -11.1 40 +2  1039.4  769  310           
12 22.03.17 200 (Ю) 20000 м    ясно 
-0.3 -12.1 41 1038.9  -0.6  768  311           
15 22.03.17 320 (СЗ) 20000 м    ясно 
-7.4 -13.2 63 -7  1039.5  0.2  768  319    +3       
18 22.03.17 120 (ЮВ) 20000 м    ясно 
-11.4 -13.6 84 -11  1039.3  -0.4  768  324           
21 22.03.17 110 (В) 4000 м  дымка  ясно 
-15.2 -17.4 83 -15  1039.1  -0.5  768  329           
00 23.03.17 100 (В) 0500 м  переохл. туман [диам. изморози 9 мм]  ясно 
-16.9 -19.4 81 -17  1039  -0.2  768  331           
03 23.03.17 070 (В) 4000 м  дымка{туман} [диам. изморози 19 мм]  3/0 верхняя 
[Ci fib]
-14.1 -16.4 83 -16  1039.2  0.4  768  328  -18.6      44  неравномерный
сухой снег
100% 
06 23.03.17 080 (В) 20000 м  {туман} [диам. изморози 0 мм]  3/0 верхняя 
[Ci fib]
-6.1 -12 63 -6  1038.2  -0.5  767  317           
09 23.03.17 120 (ЮВ) 20000 м    3/0 верхняя 
[Ci fib]
-1.1 -7.8 60 -3  1036.6  -1.3  767  311           
12 23.03.17 120 (ЮВ) 20000 м    4/0 верхняя 
[Ci fib]
-2.2 -8.3 63 -6  1035.3  -1.4  765  312           
15 23.03.17 110 (В) 20000 м    4/0 верхняя 
[Ci fib]
-6.3 -10.1 74 -9  1034.3  -1.1  765  316    -1       
18 23.03.17 130 (ЮВ) 20000 м    ясно 
-8.7 -12.8 72 -12  1032.4  -2  763  319           
21 23.03.17 140 (ЮВ) 20000 м    ясно 
-10.7 -15 71 -14  1029.8  -2.7  761  321           
00 24.03.17 110 (В) 20000 м    ясно 
-11.2 -14.8 75 -13  1027.3  -2.5  759  320           
03 24.03.17 120 (ЮВ) 20000 м    ясно 
-9.7 -13.7 73 -14  1024.7  -2.5  757  318  -14.5      44  неравномерный
сухой снег
100% 
06 24.03.17 120 (ЮВ) 20000 м    6/0 верхняя 
[Ci]
-4.3 -9.3 68 -8  1021.3  -3  755  310           
09 24.03.17 130 (ЮВ) 7{10}  20000 м    10/0 верхняя 
[Ci fib]
-3.2 -7.6 72 -8  1017.9  -3.3  753  308           
12 24.03.17 130 (ЮВ) 20000 м    10/0 средняя, верхняя 
[Ac trans|Ci fib]
-4 -7.6 76 -8  1015.5  -2.4  751  308           
15 24.03.17 150 (ЮВ) 20000 м    10/0 средняя 
[As op]
-4.2 -6.9 81 -7  1014  -1.4  750  308    -3.2       
18 24.03.17 150 (ЮВ) 20000 м  {снег}  10/10 330 м 
[Ns]
-4.7 -6.7 86 -6  1012.3  -1.7  748  308           
21 24.03.17 270 (З) 20000 м    ясно 
-5.5 -7 89 -7  1011.8  -0.6  748  308           
00 25.03.17 270 (З) 20000 м    10/0 верхняя 
[Cs]
-6.7 -8.5 87 -8  1012.9  749  310           
03 25.03.17 270 (З) 20000 м    8/0 средняя, верхняя 
[Ac trans|Ci fib]
-5.3 -8.4 79 -8  1014.2  1.4  750  309  -7.1    0.0  43  неравномерный
сухой снег
100% 
Время (UTC), дата Ветер
(°,м/с) 
Видим.   Явления Облачность Т
(°С)
Тd
(°С)
f(%) Тe
(°С)
Pmin
(гПа)
dP
(гПа)
Po
(мм)
O2
(г/м3)
Тmin Tmax R s Состояние
почвы

Для получения пояснительной информации подведите курсор к названию столбца.

ПОГОДА в Щербакуле - архив

Всё, что Вы хотите узнать о погоде в Щербакуле - удобно и подробно!

Выберите нужную дату (начиная с 1 января 2015* года) и нажмите кнопку "Найти".
Будут отображены архивные сводки погоды по пункту Щербакуль, начиная с указанной даты.


Отображать данные в формате CSV (для использования в таблицах Excel)


Внимание! Наш архив погоды предназначен исключительно для личного некоммерческого использования в познавательных целях. Если Вам необходимы официальные справки о состоянии погоды (для производственных, юридических, коммерческих и т.п. целей), обращайтесь в органы Росгидромета.

*Примечание: данная дата относится к архиву по метеостанциям СССР (Россия, СНГ, Балтия).
Архив по метеостанциям Зарубежной Европы и Азии (кроме Китая) хранится 10 дней, по другим регионам земного шара (Китай, Африка, Америка, Австралия, Океания) - 1 день.

Щербакуль - район местоположения метеостанции


Название, широта, долгота, высота метеостанции:
Щербакуль 54.6°ш. 72.4°д. 115 м над ур. моря [Российская Федерация]

Дополнительная информация

В oтличие oт бoльшинства пoгoдных сайтoв мы публикуем пoдрoбную метеoинфoрмацию в детальнoм прoфессиoнальнoм фoрмате.

Характеристики температуры и влажнoсти вoздуха измеряются на высoте 2 м в тени вдали oт зданий и деревьев.
Скoрoсть ветра измеряется на высoте 10 м (на урoвне рoста челoвека скoрoсть ветра ниже в 1.5-2 раза). Если метеoстанция нахoдится в гoрoде или в лесу, тo скoрoсть ветра занижена на 2-4 м/с пo сравнению с oткрытым местoм. Скoрoсть ветра над акватoриями крупных рек и oзёр, а также на вершинах хoлмoв на 2-5 м/с выше, чем в oбычных услoвиях.
Атмoсфернoе давление в разных тoчках местнoсти мoжет значительнo oтличаться oт давления на метеoстанции, в зависимoсти oт услoвий рельефа (при пoдъёме на 10 м давление пoнижается примернo на 1 мм рт.ст.).